This is the latest recevied weather packets stored in our database for station/object DL6DJ-15. If no packets are shown the sender has not sent any weather packets the latest 10 day(s).
| Time | Temp. | Humidity | Pressure | Rain* | Wind** | Luminosity | Snow |
|---|---|---|---|---|---|---|---|
| 1777946726 | 13.33° C | 61% | 1010.4 hPa | - | - | - | - |
| 1777946426 | 13.33° C | 60% | 1010.4 hPa | - | - | - | - |
| 1777946125 | 13.89° C | 59% | 1010.4 hPa | - | - | - | - |
| 1777945825 | 14.44° C | 58% | 1010.4 hPa | - | - | - | - |
| 1777945525 | 14.44° C | 56% | 1010.5 hPa | - | - | - | - |
| 1777945224 | 15° C | 57% | 1010.4 hPa | - | - | - | - |
| 1777944924 | 15° C | 56% | 1010.4 hPa | - | - | - | - |
| 1777944623 | 15.56° C | 55% | 1010.5 hPa | - | - | - | - |
| 1777944323 | 15.56° C | 54% | 1010.5 hPa | - | - | - | - |
| 1777944023 | 16.11° C | 53% | 1010.5 hPa | - | - | - | - |
| 1777943722 | 16.11° C | 52% | 1010.5 hPa | - | - | - | - |
| 1777943421 | 16.11° C | 52% | 1010.4 hPa | - | - | - | - |
| 1777943121 | 16.11° C | 51% | 1010.4 hPa | - | - | - | - |
| 1777942821 | 16.11° C | 50% | 1010.4 hPa | - | - | - | - |
| 1777942520 | 16.11° C | 50% | 1010.4 hPa | - | - | - | - |
| 1777942220 | 16.67° C | 49% | 1010.4 hPa | - | - | - | - |
| 1777941920 | 16.67° C | 49% | 1010.5 hPa | - | - | - | - |
| 1777941619 | 16.67° C | 50% | 1010.7 hPa | - | - | - | - |
| 1777941319 | 16.67° C | 49% | 1010.9 hPa | - | - | - | - |
| 1777941018 | 16.67° C | 49% | 1011.1 hPa | - | - | - | - |
| 1777940718 | 17.22° C | 49% | 1011.4 hPa | - | - | - | - |
| 1777940418 | 17.22° C | 50% | 1011.5 hPa | - | - | - | - |
| 1777940117 | 17.22° C | 50% | 1011.5 hPa | - | - | - | - |
| 1777939817 | 16.67° C | 52% | 1011.6 hPa | - | - | - | - |
| 1777939517 | 17.22° C | 53% | 1011.6 hPa | - | - | - | - |
* Rain since midnight (hover to see other rain measurements)
** Current wind speed in m/s (hover to see current wind gust speed)